DLH8KF EDDF-EPPO

Flight info

Callsign DLH8KF
Flight time 0h 57m
Altitude 37000
Route TOBAK8M/25C TOBAK N858 FEDZA Y172 MAG Z20 SUBIX L980 KELOD
Aircraft A319/M-SDE3FGHIRWY/LB1

Departure

Time 2026-05-04 06:48
Airport Frankfurt Main Airport (EDDF)

Arrival

Time 2026-05-04 07:46
Airport Poznań-Ławica Airport (EPPO)
Time Latitude Longitude Altitude Speed Heading
2026-05-04 06:48 50.07075 8.29440 11837 ft 357 kts
2026-05-04 06:48 50.09537 8.30241 12633 ft 365 kts 16°
2026-05-04 06:49 50.11959 8.31492 13425 ft 369 kts 17°
2026-05-04 06:50 50.29561 8.41519 18117 ft 403 kts 33°
2026-05-04 06:51 50.31789 8.44229 18703 ft 408 kts 42°
2026-05-04 06:51 50.33194 8.46203 19090 ft 410 kts 42°
2026-05-04 06:51 50.36072 8.50204 19877 ft 416 kts 41°
2026-05-04 06:51 50.38222 8.53174 20441 ft 419 kts 41°
2026-05-04 06:52 50.40423 8.56217 21027 ft 423 kts 41°
2026-05-04 06:52 50.41923 8.58295 21413 ft 426 kts 41°
2026-05-04 06:52 50.44125 8.61353 21959 ft 430 kts 41°
2026-05-04 06:52 50.46394 8.64465 22504 ft 434 kts 40°
2026-05-04 06:53 50.48704 8.67537 23036 ft 437 kts 39°
2026-05-04 06:53 50.51060 8.70617 23555 ft 441 kts 39°
2026-05-04 06:53 50.53439 8.73705 23994 ft 445 kts 39°
2026-05-04 06:53 50.55738 8.76892 24415 ft 448 kts 45°
2026-05-04 06:54 50.57758 8.80650 24843 ft 451 kts 55°
2026-05-04 06:54 50.59394 8.84869 25259 ft 453 kts 62°
2026-05-04 06:54 50.60914 8.89253 25679 ft 455 kts 62°
2026-05-04 06:54 50.62434 8.93653 26090 ft 459 kts 62°
2026-05-04 06:55 50.63967 8.98085 26506 ft 462 kts 62°
2026-05-04 06:55 50.65512 9.02548 26918 ft 465 kts 62°
2026-05-04 06:55 50.67041 9.06978 27327 ft 467 kts 62°
2026-05-04 06:55 50.68596 9.11498 27723 ft 470 kts 62°
2026-05-04 06:56 50.70162 9.16055 28132 ft 473 kts 62°
2026-05-04 06:57 50.80695 9.49134 30597 ft 490 kts 65°
2026-05-04 06:58 50.82197 9.53990 30904 ft 492 kts 65°
2026-05-04 06:58 50.83706 9.58842 31327 ft 491 kts 65°
2026-05-04 06:58 50.85215 9.63681 31787 ft 489 kts 65°
2026-05-04 06:58 50.86719 9.68508 32226 ft 488 kts 65°
2026-05-04 06:59 50.88222 9.73338 32660 ft 487 kts 65°
2026-05-04 06:59 50.89712 9.78161 33109 ft 485 kts 65°
2026-05-04 06:59 50.91165 9.82902 33527 ft 484 kts 65°
2026-05-04 06:59 50.92634 9.87710 33959 ft 484 kts 65°
2026-05-04 07:01 51.02853 10.21312 36278 ft 484 kts 65°
2026-05-04 07:01 51.04311 10.26148 36568 ft 484 kts 65°
2026-05-04 07:02 51.05812 10.30943 36855 ft 484 kts 59°
2026-05-04 07:02 51.07806 10.35161 36991 ft 484 kts 44°
2026-05-04 07:02 51.10358 10.38625 37001 ft 481 kts 33°
2026-05-04 07:02 51.13179 10.41473 37005 ft 480 kts 29°
2026-05-04 07:03 51.18808 10.47249 37000 ft 481 kts 32°
2026-05-04 07:03 51.24337 10.53303 37004 ft 481 kts 32°
2026-05-04 07:04 51.29848 10.59299 37003 ft 481 kts 32°
2026-05-04 07:04 51.35419 10.65236 37000 ft 481 kts 31°
2026-05-04 07:05 51.40925 10.71225 37001 ft 482 kts 34°
2026-05-04 07:05 51.46284 10.77707 37007 ft 482 kts 36°
2026-05-04 07:06 51.53931 10.88156 37011 ft 484 kts 48°
2026-05-04 07:07 51.58203 10.96549 37008 ft 484 kts 50°
2026-05-04 07:09 51.75150 11.30196 37023 ft 483 kts 50°
2026-05-04 07:09 51.79349 11.38632 37019 ft 483 kts 50°
2026-05-04 07:10 51.83563 11.47114 37019 ft 483 kts 50°
2026-05-04 07:12 51.99580 11.81906 37000 ft 482 kts 69°
2026-05-04 07:12 52.01420 11.92333 36991 ft 480 kts 78°
2026-05-04 07:13 52.03001 12.02888 36990 ft 481 kts 78°
2026-05-04 07:13 52.04582 12.13437 36992 ft 481 kts 78°
2026-05-04 07:14 52.08443 12.39783 36983 ft 481 kts 78°
2026-05-04 07:15 52.09970 12.50381 36984 ft 481 kts 78°
2026-05-04 07:15 52.11490 12.60979 36975 ft 481 kts 78°
2026-05-04 07:16 52.13011 12.71586 36967 ft 481 kts 78°
2026-05-04 07:16 52.14516 12.82153 36972 ft 481 kts 79°
2026-05-04 07:17 52.16009 12.92780 36967 ft 481 kts 79°
2026-05-04 07:17 52.17496 13.03427 36972 ft 481 kts 79°
2026-05-04 07:18 52.18967 13.14003 36967 ft 481 kts 79°
2026-05-04 07:18 52.20437 13.24666 36971 ft 481 kts 79°
2026-05-04 07:19 52.21882 13.35324 36965 ft 481 kts 79°
2026-05-04 07:19 52.23316 13.45927 36969 ft 482 kts 79°
2026-05-04 07:20 52.24761 13.56624 36966 ft 482 kts 79°
2026-05-04 07:20 52.26198 13.67335 36971 ft 483 kts 79°
2026-05-04 07:22 52.31839 14.10238 36981 ft 484 kts 79°
2026-05-04 07:23 52.33226 14.20929 36985 ft 483 kts 79°
2026-05-04 07:23 52.34604 14.31695 36640 ft 485 kts 80°
2026-05-04 07:24 52.35293 14.37152 35544 ft 494 kts 80°
2026-05-04 07:24 52.35987 14.42704 34570 ft 500 kts 80°
2026-05-04 07:24 52.36685 14.48292 33575 ft 502 kts 79°
2026-05-04 07:24 52.37336 14.53924 32326 ft 504 kts 84°
2026-05-04 07:25 52.37551 14.59652 31142 ft 503 kts 93°
2026-05-04 07:26 52.33751 14.97653 26108 ft 460 kts 102°
2026-05-04 07:27 52.33188 15.02765 25947 ft 455 kts 102°
2026-05-04 07:27 52.32621 15.07861 25987 ft 455 kts 102°
2026-05-04 07:27 52.32058 15.12918 25061 ft 451 kts 102°
2026-05-04 07:27 52.31490 15.17971 24005 ft 460 kts 102°
2026-05-04 07:28 52.30909 15.23102 23249 ft 458 kts 102°
2026-05-04 07:28 52.30331 15.28204 22497 ft 454 kts 102°
2026-05-04 07:28 52.29759 15.33249 21801 ft 449 kts 102°
2026-05-04 07:28 52.29194 15.38239 21190 ft 444 kts 102°
2026-05-04 07:29 52.28636 15.43158 20705 ft 436 kts 103°
2026-05-04 07:29 52.28083 15.48008 20197 ft 431 kts 103°
2026-05-04 07:29 52.27540 15.52746 19701 ft 427 kts 103°
2026-05-04 07:29 52.26994 15.57486 19314 ft 421 kts 103°
2026-05-04 07:30 52.26454 15.62158 18711 ft 420 kts 103°
2026-05-04 07:30 52.25907 15.66874 17993 ft 424 kts 103°
2026-05-04 07:30 52.25358 15.71596 17390 ft 422 kts 103°
2026-05-04 07:30 52.24806 15.76301 16685 ft 422 kts 103°
2026-05-04 07:31 52.24252 15.80997 16075 ft 421 kts 103°
2026-05-04 07:31 52.23712 15.85679 15512 ft 418 kts 102°
2026-05-04 07:33 52.25100 16.17956 11012 ft 393 kts 87°
2026-05-04 07:33 52.25342 16.22283 10871 ft 372 kts 87°
2026-05-04 07:33 52.25571 16.26327 10746 ft 352 kts 87°
2026-05-04 07:33 52.25789 16.30204 10628 ft 334 kts 88°
2026-05-04 07:34 52.25993 16.33894 10449 ft 320 kts 88°
2026-05-04 07:34 52.26185 16.37472 10136 ft 316 kts 88°
2026-05-04 07:34 52.26375 16.41031 9797 ft 313 kts 88°
2026-05-04 07:34 52.26562 16.44572 9420 ft 311 kts 88°
2026-05-04 07:35 52.26745 16.48086 9036 ft 310 kts 88°
2026-05-04 07:35 52.26899 16.51587 8661 ft 307 kts 90°
2026-05-04 07:35 52.26964 16.55021 8284 ft 305 kts 91°
2026-05-04 07:35 52.27010 16.58482 7904 ft 304 kts 91°
2026-05-04 07:36 52.27046 16.61926 7515 ft 303 kts 91°
2026-05-04 07:36 52.27072 16.65361 7140 ft 302 kts 91°
2026-05-04 07:38 52.26990 16.88628 4670 ft 280 kts 91°
2026-05-04 07:38 52.26949 16.91796 4273 ft 278 kts 91°
2026-05-04 07:38 52.26896 16.94949 3980 ft 275 kts 91°
2026-05-04 07:38 52.26858 16.98060 3951 ft 270 kts 86°
2026-05-04 07:39 52.27151 17.01061 3875 ft 266 kts 77°
2026-05-04 07:39 52.27529 17.03969 3729 ft 256 kts 76°
2026-05-04 07:39 52.27889 17.06740 3543 ft 250 kts 76°
2026-05-04 07:39 52.28239 17.09503 3219 ft 247 kts 76°
2026-05-04 07:40 52.28672 17.12167 3094 ft 238 kts 62°
2026-05-04 07:40 52.29614 17.14261 2982 ft 225 kts 36°
2026-05-04 07:40 52.30910 17.15522 2956 ft 215 kts 15°
2026-05-04 07:40 52.32360 17.15971 2952 ft 210 kts 356°
2026-05-04 07:41 52.33798 17.15606 2949 ft 208 kts 338°
2026-05-04 07:41 52.35067 17.14502 2951 ft 205 kts 320°
2026-05-04 07:41 52.36039 17.12802 2952 ft 205 kts 302°
2026-05-04 07:41 52.36624 17.10700 2957 ft 206 kts 287°
2026-05-04 07:42 52.37058 17.08468 2953 ft 200 kts 288°
2026-05-04 07:42 52.37476 17.06359 2948 ft 191 kts 288°
2026-05-04 07:42 52.37881 17.04302 2804 ft 186 kts 288°
2026-05-04 07:42 52.38265 17.02343 2596 ft 184 kts 288°
2026-05-04 07:43 52.38656 17.00347 2338 ft 182 kts 288°
2026-05-04 07:43 52.39036 16.98400 2097 ft 177 kts 288°
2026-05-04 07:43 52.39402 16.96527 1868 ft 167 kts 289°
2026-05-04 07:43 52.39747 16.94756 1656 ft 160 kts 289°
2026-05-04 07:44 52.40072 16.93093 1447 ft 143 kts 288°
2026-05-04 07:44 52.40354 16.91600 1220 ft 132 kts 287°
2026-05-04 07:44 52.40628 16.90189 1077 ft 128 kts 288°
2026-05-04 07:44 52.40919 16.88805 896 ft 127 kts 287°
2026-05-04 07:45 52.41082 16.87895 743 ft 125 kts 285°
2026-05-04 07:45 52.41353 16.86535 624 ft 125 kts 287°
2026-05-04 07:45 52.41694 16.84736 418 ft 125 kts 284°
2026-05-04 07:45 52.41953 16.83388 291 ft 119 kts 286°
2026-05-04 07:46 52.42105 16.82617 291 ft 92 kts 288°
2026-05-04 07:46 52.42263 16.81801 291 ft 33 kts 287°
2026-05-04 07:46 52.42298 16.81540 289 ft 17 kts 273°
2026-05-04 07:46 52.42293 16.81408 289 ft 17 kts 263°
2026-05-04 07:47 52.42275 16.81229 288 ft 12 kts 258°
2026-05-04 07:47 52.42217 16.81160 288 ft 11 kts 136°
2026-05-04 07:47 52.42199 16.81244 291 ft 12 kts 104°
2026-05-04 07:49 52.41990 16.82351 288 ft 16 kts 108°
2026-05-04 07:49 52.41957 16.82512 288 ft 14 kts 109°
2026-05-04 07:49 52.41929 16.82650 288 ft 12 kts 108°
2026-05-04 07:50 52.41903 16.82781 288 ft 12 kts 107°
2026-05-04 07:50 52.41869 16.82907 288 ft 12 kts 142°
2026-05-04 07:50 52.41793 16.82888 288 ft 11 kts 199°
2026-05-04 07:50 52.41717 16.82851 288 ft 11 kts 196°
2026-05-04 07:51 52.41670 16.82783 288 ft 8 kts 251°
2026-05-04 07:51 52.41631 16.82738 288 ft 7 kts 186°
2026-05-04 07:51 52.41591 16.82734 288 ft 5 kts 182°
2026-05-04 07:51 52.41575 16.82733 292 ft 0 kts 181°